Time,TemperatureF,DewpointF,PressureIn,WindDirection,WindDirectionDegrees,WindSpeedMPH,WindSpeedGustMPH,Humidity,HourlyPrecipIn,Conditions,Clouds,dailyrainin,SoftwareType,DateUTC
2013-03-10 00:11:00,34.0,31.0,-100.00,NNW,348,1.0,-999.0,89,-99.99,,,-99.99,,2013-03-10 05:11:00,
2013-03-10 00:22:00,34.0,31.0,-100.00,NNW,348,1.0,-999.0,89,0.00,,,-99.99,,2013-03-10 05:22:00,
2013-03-10 00:32:00,34.0,31.0,-100.00,NNW,348,1.0,-999.0,89,0.00,,,-99.99,,2013-03-10 05:32:00,
2013-03-10 00:42:00,34.0,31.0,-100.00,NNW,348,1.0,-999.0,89,0.00,,,-99.99,,2013-03-10 05:42:00,
2013-03-10 01:22:00,32.0,30.0,-100.00,NW,324,1.0,-999.0,93,0.00,,,-99.99,,2013-03-10 06:22:00,
2013-03-10 01:32:00,32.0,30.0,-100.00,NW,324,1.0,-999.0,93,0.00,,,-99.99,,2013-03-10 06:32:00,
2013-03-10 01:42:00,32.0,30.0,-100.00,NW,324,1.0,-999.0,93,0.00,,,-99.99,,2013-03-10 06:42:00,
2013-03-10 03:11:00,33.0,31.0,-100.00,NNE,30,1.0,-999.0,92,0.00,,,-99.99,,2013-03-10 07:11:00,
2013-03-10 03:21:00,33.0,31.0,-100.00,NNE,30,1.0,-999.0,92,0.00,,,-99.99,,2013-03-10 07:21:00,
2013-03-10 03:32:00,33.0,31.0,-100.00,NNE,30,1.0,-999.0,92,0.00,,,-99.99,,2013-03-10 07:32:00,
2013-03-10 03:42:00,33.0,31.0,-100.00,NNE,30,1.0,-999.0,92,0.00,,,-99.99,,2013-03-10 07:42:00,
2013-03-10 04:12:00,35.0,31.0,-100.00,NE,36,2.0,-999.0,85,0.00,,,-99.99,,2013-03-10 08:12:00,
2013-03-10 04:21:00,35.0,31.0,-100.00,NE,36,2.0,-999.0,85,0.00,,,-99.99,,2013-03-10 08:21:00,
2013-03-10 04:32:00,35.0,31.0,-100.00,NE,36,2.0,-999.0,85,0.00,,,-99.99,,2013-03-10 08:32:00,
2013-03-10 04:42:00,35.0,31.0,-100.00,NE,36,2.0,-999.0,85,0.00,,,-99.99,,2013-03-10 08:42:00,
2013-03-10 05:11:00,36.0,31.0,-100.00,NNE,25,4.0,-999.0,80,0.00,,,-99.99,,2013-03-10 09:11:00,
2013-03-10 05:21:00,36.0,31.0,-100.00,NNE,25,4.0,-999.0,80,0.00,,,-99.99,,2013-03-10 09:21:00,
2013-03-10 05:32:00,36.0,31.0,-100.00,NNE,25,4.0,-999.0,80,0.00,,,-99.99,,2013-03-10 09:32:00,
2013-03-10 05:41:00,36.0,31.0,-100.00,NNE,25,4.0,-999.0,80,0.00,,,-99.99,,2013-03-10 09:41:00,
2013-03-10 06:11:00,37.0,30.0,-100.00,NNE,28,4.0,-999.0,76,0.00,,,-99.99,,2013-03-10 10:11:00,
2013-03-10 06:22:00,37.0,30.0,-100.00,NNE,28,4.0,-999.0,76,0.00,,,-99.99,,2013-03-10 10:22:00,
2013-03-10 06:32:00,37.0,30.0,-100.00,NNE,28,4.0,-999.0,76,0.00,,,-99.99,,2013-03-10 10:32:00,
2013-03-10 06:42:00,37.0,30.0,-100.00,NNE,28,4.0,-999.0,76,0.00,,,-99.99,,2013-03-10 10:42:00,
2013-03-10 07:12:00,36.0,30.0,-100.00,ENE,60,4.0,-999.0,76,0.00,,,-99.99,,2013-03-10 11:12:00,
2013-03-10 07:21:00,36.0,30.0,-100.00,ENE,60,4.0,-999.0,76,0.00,,,-99.99,,2013-03-10 11:21:00,
2013-03-10 07:32:00,36.0,30.0,-100.00,ENE,60,4.0,-999.0,76,0.00,,,-99.99,,2013-03-10 11:32:00,
2013-03-10 07:42:00,36.0,30.0,-100.00,ENE,60,4.0,-999.0,76,0.00,,,-99.99,,2013-03-10 11:42:00,
2013-03-10 08:21:00,36.0,30.0,-100.00,NE,53,4.0,-999.0,77,0.00,,,-99.99,,2013-03-10 12:21:00,
2013-03-10 08:32:00,36.0,30.0,-100.00,NE,53,4.0,-999.0,77,0.00,,,-99.99,,2013-03-10 12:32:00,
2013-03-10 08:42:00,36.0,30.0,-100.00,NE,53,4.0,-999.0,77,0.00,,,-99.99,,2013-03-10 12:42:00,
2013-03-10 09:21:00,37.0,31.0,-100.00,ENE,57,3.0,-999.0,77,0.00,,,-99.99,,2013-03-10 13:21:00,
2013-03-10 09:32:00,37.0,31.0,-100.00,ENE,57,3.0,-999.0,77,0.00,,,-99.99,,2013-03-10 13:32:00,
2013-03-10 09:42:00,37.0,31.0,-100.00,ENE,57,3.0,-999.0,77,0.00,,,-99.99,,2013-03-10 13:42:00,
2013-03-10 10:22:00,39.0,31.0,-100.00,NE,40,3.0,-999.0,74,0.00,,,-99.99,,2013-03-10 14:22:00,
2013-03-10 10:32:00,39.0,31.0,-100.00,NE,40,3.0,-999.0,74,0.00,,,-99.99,,2013-03-10 14:32:00,
2013-03-10 10:42:00,39.0,31.0,-100.00,NE,40,3.0,-999.0,74,0.00,,,-99.99,,2013-03-10 14:42:00,
2013-03-10 11:21:00,40.0,31.0,-100.00,ENE,78,4.0,-999.0,72,0.00,,,-99.99,,2013-03-10 15:21:00,
2013-03-10 11:32:00,40.0,31.0,-100.00,ENE,78,4.0,-999.0,72,0.00,,,-99.99,,2013-03-10 15:32:00,
2013-03-10 11:42:00,40.0,31.0,-100.00,ENE,78,4.0,-999.0,72,0.00,,,-99.99,,2013-03-10 15:42:00,
2013-03-10 12:21:00,41.0,31.0,-100.00,NE,46,3.0,-999.0,69,0.00,,,-99.99,,2013-03-10 16:21:00,
2013-03-10 12:32:00,41.0,31.0,-100.00,NE,46,3.0,-999.0,69,0.00,,,-99.99,,2013-03-10 16:32:00,
2013-03-10 12:41:00,41.0,31.0,-100.00,NE,46,3.0,-999.0,69,0.00,,,-99.99,,2013-03-10 16:41:00,
2013-03-10 13:21:00,41.0,32.0,-100.00,NE,54,3.0,-999.0,68,0.00,,,-99.99,,2013-03-10 17:21:00,
2013-03-10 13:32:00,41.0,32.0,-100.00,NE,54,3.0,-999.0,68,0.00,,,-99.99,,2013-03-10 17:32:00,
2013-03-10 13:41:00,41.0,32.0,-100.00,NE,54,3.0,-999.0,68,0.00,,,-99.99,,2013-03-10 17:41:00,
2013-03-10 14:12:00,42.0,31.0,-100.00,ESE,104,4.0,-999.0,64,0.00,,,-99.99,,2013-03-10 18:12:00,
2013-03-10 14:22:00,42.0,31.0,-100.00,ESE,104,4.0,-999.0,64,0.00,,,-99.99,,2013-03-10 18:22:00,
2013-03-10 14:32:00,42.0,31.0,-100.00,ESE,104,4.0,-999.0,64,0.00,,,-99.99,,2013-03-10 18:32:00,
2013-03-10 14:42:00,42.0,31.0,-100.00,ESE,104,4.0,-999.0,64,0.00,,,-99.99,,2013-03-10 18:42:00,
2013-03-10 15:22:00,43.0,32.0,-100.00,East,83,4.0,-999.0,63,0.00,,,-99.99,,2013-03-10 19:22:00,
2013-03-10 15:32:00,43.0,32.0,-100.00,East,83,4.0,-999.0,63,0.00,,,-99.99,,2013-03-10 19:32:00,
2013-03-10 15:42:00,43.0,32.0,-100.00,East,83,4.0,-999.0,63,0.00,,,-99.99,,2013-03-10 19:42:00,
2013-03-10 16:22:00,43.0,33.0,-100.00,SSE,150,4.0,-999.0,68,0.00,,,-99.99,,2013-03-10 20:22:00,
2013-03-10 16:32:00,43.0,33.0,-100.00,SSE,150,4.0,-999.0,68,0.00,,,-99.99,,2013-03-10 20:32:00,
2013-03-10 16:43:00,43.0,33.0,-100.00,SSE,150,4.0,-999.0,68,0.00,,,-99.99,,2013-03-10 20:43:00,
2013-03-10 17:23:00,40.0,32.0,-100.00,SSE,149,6.0,-999.0,72,0.00,,,-99.99,,2013-03-10 21:23:00,
2013-03-10 17:33:00,40.0,32.0,-100.00,SSE,149,6.0,-999.0,72,0.00,,,-99.99,,2013-03-10 21:33:00,
2013-03-10 17:42:00,40.0,32.0,-100.00,SSE,149,6.0,-999.0,72,0.00,,,-99.99,,2013-03-10 21:42:00,
2013-03-10 18:22:00,39.0,32.0,-100.00,SE,132,4.0,-999.0,76,0.00,,,-99.99,,2013-03-10 22:22:00,
2013-03-10 18:32:00,39.0,32.0,-100.00,SE,132,4.0,-999.0,76,0.00,,,-99.99,,2013-03-10 22:32:00,
2013-03-10 18:43:00,39.0,32.0,-100.00,SE,132,4.0,-999.0,76,0.00,,,-99.99,,2013-03-10 22:43:00,
2013-03-10 19:23:00,38.0,32.0,-100.00,SE,133,4.0,-999.0,79,0.00,,,-99.99,,2013-03-10 23:23:00,
2013-03-10 19:33:00,38.0,32.0,-100.00,SE,133,4.0,-999.0,79,0.00,,,-99.99,,2013-03-10 23:33:00,
2013-03-10 19:42:00,38.0,32.0,-100.00,SE,133,4.0,-999.0,79,0.00,,,-99.99,,2013-03-10 23:42:00,
2013-03-10 20:23:00,37.0,32.0,-100.00,SE,126,2.0,-999.0,82,0.00,,,-99.99,,2013-03-11 00:23:00,
2013-03-10 20:33:00,37.0,32.0,-100.00,SE,126,2.0,-999.0,82,0.00,,,-99.99,,2013-03-11 00:33:00,
2013-03-10 20:43:00,37.0,32.0,-100.00,SE,126,2.0,-999.0,82,0.00,,,-99.99,,2013-03-11 00:43:00,
2013-03-10 21:23:00,36.0,31.0,-100.00,SE,140,1.0,-999.0,82,0.00,,,-99.99,,2013-03-11 01:23:00,
2013-03-10 21:32:00,36.0,31.0,-100.00,SE,140,1.0,-999.0,82,0.00,,,-99.99,,2013-03-11 01:32:00,
2013-03-10 21:43:00,36.0,31.0,-100.00,SE,140,1.0,-999.0,82,0.00,,,-99.99,,2013-03-11 01:43:00,
2013-03-10 22:23:00,36.0,31.0,-100.00,SE,145,3.0,-999.0,81,0.00,,,-99.99,,2013-03-11 02:23:00,
2013-03-10 22:32:00,36.0,31.0,-100.00,SE,145,3.0,-999.0,81,0.00,,,-99.99,,2013-03-11 02:32:00,
2013-03-10 22:42:00,36.0,31.0,-100.00,SE,145,3.0,-999.0,81,0.00,,,-99.99,,2013-03-11 02:42:00,
2013-03-10 23:22:00,36.0,31.0,-100.00,SSE,155,2.0,-999.0,82,0.00,,,-99.99,,2013-03-11 03:22:00,
2013-03-10 23:32:00,36.0,31.0,-100.00,SSE,155,2.0,-999.0,82,0.00,,,-99.99,,2013-03-11 03:32:00,
2013-03-10 23:42:00,36.0,31.0,-100.00,SSE,155,2.0,-999.0,82,0.00,,,-99.99,,2013-03-11 03:42:00,